Weather History for KPVU - September, 2013

Change the Weather History Date:

Friday, September 13, 2013

  Actual Average Record
Temperature  
Mean Temperature 65 °F -  
Max Temperature 71 °F 75 °F 92 °F (1990)
Min Temperature 59 °F 48 °F 42 °F (1988)
Growing Degree Days 15 (Base 50)    
Moisture  
Dew Point 57 °F    
Average Humidity 82    
Maximum Humidity 94    
Minimum Humidity 57    
Precipitation  
Precipitation 0.11 in - - ()
Sea Level Pressure  
Sea Level Pressure 30.01 in    
Wind  
Wind Speed 2 mph (ESE)    
Max Wind Speed 17 mph    
Max Gust Speed 25 mph    
Visibility 12 miles    
Events Thunderstorm    
Averages and records for this station are not official NWS values.
T = Trace of Precipitation, MM = Missing Value Source: NWS Daily Summary

Daily Weather History Graph

Daily Weather History Graph

Search for Another Location

Airport or City:

Trip Planner

Search our weather history database for the weather conditions in past years. The results will help you decide how hot, cold, wet, or windy it might be!

Date:

Astronomy

Sep. 13, 2013 Rise Set
Actual Time 7:06 AM MDT 7:38 PM MDT
Civil Twilight 6:38 AM MDT 8:05 PM MDT
Nautical Twilight 6:06 AM MDT 8:37 PM MDT
Astronomical Twilight 5:33 AM MDT 9:10 PM MDT
Moon 3:32 PM MDT (9/13) 12:38 AM MDT (9/13)
Length of Visible Light 13h 26m
Length of Day
12h 32m
Waxing Gibbous, 62% of the Moon is Illuminated
Sep 13
Waxing Gibbous
Sep 19
Full
Sep 26
Last Quarter
Oct 4
New
Oct 11
First Quarter

Hourly Weather History & Observations

Time (MDT) Temp. Dew Point Humidity Pressure Visibility Wind Dir Wind Speed Gust Speed Precip Events Conditions
12:15 AM 62.6 °F 57.2 °F 82% 30.07 in 10.0 mi Calm Calm - N/A   Overcast
12:35 AM 62.6 °F 57.2 °F 82% 30.07 in 10.0 mi Calm Calm - N/A   Overcast
12:55 AM 62.6 °F 59.0 °F 88% 30.06 in 10.0 mi Calm Calm - N/A   Mostly Cloudy
1:15 AM 62.6 °F 59.0 °F 88% 30.08 in 10.0 mi SSE 9.2 mph - N/A Thunderstorm Thunderstorm
1:35 AM 62.6 °F 59.0 °F 88% 30.07 in 10.0 mi SSE 4.6 mph - 0.11 in Thunderstorm Thunderstorm
1:55 AM 62.6 °F 57.2 °F 82% 30.06 in 10.0 mi NE 3.5 mph - 0.11 in Thunderstorm Overcast
2:15 AM 60.8 °F 57.2 °F 88% 30.06 in 10.0 mi NNE 4.6 mph - N/A   Overcast
2:35 AM 60.8 °F 55.4 °F 82% 30.06 in 10.0 mi Calm Calm - N/A   Scattered Clouds
2:55 AM 60.8 °F 57.2 °F 88% 30.06 in 10.0 mi Calm Calm - N/A   Partly Cloudy
3:15 AM 60.8 °F 57.2 °F 88% 30.06 in 10.0 mi Calm Calm - N/A   Mostly Cloudy
3:35 AM 62.6 °F 59.0 °F 88% 30.06 in 10.0 mi Calm Calm - N/A   Mostly Cloudy
3:55 AM 60.8 °F 57.2 °F 88% 30.05 in 10.0 mi Calm Calm - N/A   Overcast
4:15 AM 60.8 °F 57.2 °F 88% 30.05 in 10.0 mi ESE 3.5 mph - N/A   Mostly Cloudy
4:35 AM 60.8 °F 57.2 °F 88% 30.05 in 10.0 mi Calm Calm - N/A   Mostly Cloudy
4:55 AM 60.8 °F 59.0 °F 94% 30.04 in 10.0 mi ENE 3.5 mph - N/A   Mostly Cloudy
5:15 AM 60.8 °F 57.2 °F 88% 30.04 in 10.0 mi Calm Calm - N/A   Mostly Cloudy
5:35 AM 60.8 °F 57.2 °F 88% 30.03 in 10.0 mi East 3.5 mph - N/A   Overcast
5:55 AM 60.8 °F 57.2 °F 88% 30.03 in 10.0 mi ESE 3.5 mph - N/A   Overcast
6:15 AM 60.8 °F 57.2 °F 88% 30.03 in 10.0 mi Calm Calm - N/A   Overcast
6:35 AM 60.8 °F 57.2 °F 88% 30.03 in 10.0 mi Calm Calm - N/A   Overcast
6:53 AM 60.8 °F 57.2 °F 88% 30.03 in 15.0 mi Calm Calm - N/A   Overcast
7:56 AM 60.8 °F 55.4 °F 82% 30.04 in 15.0 mi ESE 3.5 mph - N/A   Mostly Cloudy
9:53 AM 60.8 °F 57.2 °F 88% 30.03 in 15.0 mi Calm Calm - N/A   Mostly Cloudy
9:55 AM 64.4 °F 57.2 °F 77% 30.04 in 15.0 mi Calm Calm - N/A   Mostly Cloudy
10:58 AM 66.2 °F 55.4 °F 68% 30.03 in 15.0 mi Calm Calm - N/A   Mostly Cloudy
11:58 AM 69.8 °F 57.2 °F 64% 30.01 in 15.0 mi Calm Calm - N/A   Scattered Clouds
12:55 PM 71.6 °F 55.4 °F 57% 29.98 in 15.0 mi SSE 5.8 mph - N/A   Mostly Cloudy
1:55 PM 69.8 °F 55.4 °F 60% 29.96 in 15.0 mi West 3.5 mph - N/A   Mostly Cloudy
2:57 PM 68.0 °F 55.4 °F 64% 29.98 in 15.0 mi NW 17.3 mph 25.3 mph N/A   Overcast
3:55 PM 62.6 °F 55.4 °F 77% 29.97 in 15.0 mi NNW 11.5 mph - N/A   Mostly Cloudy
4:55 PM 66.2 °F 59.0 °F 78% 29.96 in 15.0 mi SE 12.7 mph - N/A   Mostly Cloudy
5:49 PM 64.4 °F 57.2 °F 77% 29.94 in 15.0 mi SW 5.8 mph - N/A   Mostly Cloudy
6:53 PM 64.4 °F 55.4 °F 73% 29.94 in 15.0 mi Calm Calm - N/A   Mostly Cloudy
7:52 PM 64.4 °F 55.4 °F 73% 29.94 in 15.0 mi NW 4.6 mph - N/A   Scattered Clouds
8:52 PM 62.6 °F 55.4 °F 77% 29.96 in 15.0 mi Calm Calm - N/A   Scattered Clouds
9:15 PM 60.8 °F 55.4 °F 82% 29.97 in 10.0 mi NE 5.8 mph - N/A   Clear
9:35 PM 60.8 °F 55.4 °F 82% 29.97 in 10.0 mi ESE 4.6 mph - N/A   Partly Cloudy
9:55 PM 60.8 °F 57.2 °F 88% 29.96 in 10.0 mi SE 4.6 mph - N/A   Partly Cloudy
10:15 PM 60.8 °F 55.4 °F 82% 29.96 in 10.0 mi ESE 5.8 mph - N/A   Scattered Clouds
10:35 PM 60.8 °F 55.4 °F 82% 29.96 in 10.0 mi Calm Calm - N/A   Overcast
10:55 PM 60.8 °F 55.4 °F 82% 29.96 in 10.0 mi Calm Calm - N/A   Scattered Clouds
11:15 PM 60.8 °F 55.4 °F 82% 29.97 in 10.0 mi Calm Calm - N/A   Partly Cloudy
11:35 PM 59.0 °F 55.4 °F 88% 29.97 in 10.0 mi East 4.6 mph - N/A   Mostly Cloudy
11:55 PM 60.8 °F 55.4 °F 82% 29.97 in 10.0 mi Calm Calm - N/A   Overcast